Tracking 25405 objects as of 27-Jan-2022
HD Live streaming from Space Station
objects crossing your sky now

FORMOSAT 3E

Track FORMOSAT 3E now!
10-day predictions
FORMOSAT 3E is classified as:


NORAD ID: 29051
Int'l Code: 2006-011E
Perigee: 753.1 km
Apogee: 851.6 km
Inclination: 72.0 °
Period: 100.8 minutes
Semi major axis: 7173 km
RCS: 0.58 m2 (medium)
Launch date: April 15, 2006
Source: Taiwan (Republic of China) (ROC)
Launch site: AIR FORCE WESTERN TEST RANGE (AFWTR)
aabbcc
Your satellite tracking list
Your tracking list is empty




NASA's NSSDC Master Catalog

Two Line Element Set (TLE):
1 29051U 06011E   22026.84699807  .00000166  00000-0  79874-4 0  9990
2 29051  72.0065 335.0494 0068651 345.4838  14.4324 14.28964594826239
Source of the keplerian elements: AFSPC